Change the Weather History Date:

Monday, December 5, 2011

  Actual Average Record
Temperature  
Mean Temperature 67 °F 54 °F  
Max Temperature 77 °F 65 °F 82 °F (2013)
Min Temperature 57 °F 43 °F 21 °F (2000)
Degree Days  
Heating Degree Days 0 12  
Month to date heating degree days 51 56  
Since 1 July heating degree days 311 323  
Cooling Degree Days 2 0  
Month to date cooling degree days 2 3  
Year to date cooling degree days 2822 2452  
Growing Degree Days 17 (Base 50)    
Moisture  
Dew Point 58 °F    
Average Humidity 75    
Maximum Humidity 93    
Minimum Humidity 57    
Precipitation  
Precipitation T in 0.09 in 1.17 in (1994)
Month to date precipitation T 0.43  
Year to date precipitation 33.70 45.44  
Snow  
Snow 0.00 in 0.00 in - ()
Month to date snowfall 0.0  
Since 1 July snowfall 0.0 0.0  
Snow Depth 0.00 in    
Sea Level Pressure  
Sea Level Pressure 30.19 in    
Wind  
Wind Speed 5 mph (East)    
Max Wind Speed 16 mph    
Max Gust Speed 21 mph    
Visibility 8 miles    
Events Rain    
T = Trace of Precipitation, MM = Missing Value Source: NWS Daily Summary

Daily Weather History Graph

Daily Weather History Graph

Search for Another Location

Airport or City:

Trip Planner

Search our weather history database for the weather conditions in past years. The results will help you decide how hot, cold, wet, or windy it might be!

Date:

Astronomy

Dec. 05, 2011 Rise Set
Actual Time 7:10 AM EST 5:19 PM EST
Civil Twilight 6:43 AM EST 5:46 PM EST
Nautical Twilight 6:13 AM EST 6:16 PM EST
Astronomical Twilight 5:43 AM EST 6:46 PM EST
Moon 2:06 PM EST (12/5) 2:42 AM EST (12/5)
Length of Visible Light 11h 02m
Length of Day
10h 09m
Waxing Gibbous, 79% of the Moon is Illuminated
Dec 5
Waxing Gibbous
Dec 10
Full
Dec 17
Last Quarter
Dec 24
New
Jan 1
First Quarter

Hourly Weather History & Observations

Time (EST) Temp. Dew Point Humidity Pressure Visibility Wind Dir Wind Speed Gust Speed Precip Events Conditions
12:53 AM 59.0 °F 55.0 °F 87% 30.26 in 9.0 mi NE 5.8 mph - 0.00 in Rain Light Rain
1:53 AM 60.1 °F 55.0 °F 83% 30.25 in 10.0 mi East 8.1 mph - 0.00 in   Overcast
2:53 AM 59.0 °F 55.9 °F 90% 30.22 in 10.0 mi NE 4.6 mph - N/A   Mostly Cloudy
3:53 AM 60.1 °F 57.0 °F 90% 30.22 in 10.0 mi ENE 3.5 mph - N/A   Mostly Cloudy
4:23 AM 60.8 °F 57.2 °F 88% 30.22 in 10.0 mi ENE 4.6 mph - N/A   Mostly Cloudy
4:53 AM 61.0 °F 57.9 °F 90% 30.21 in 10.0 mi East 5.8 mph - N/A   Overcast
5:53 AM 62.1 °F 60.1 °F 93% 30.21 in 10.0 mi NE 5.8 mph - 0.00 in   Overcast
6:32 AM 60.8 °F 59.0 °F 94% 30.23 in 3.0 mi ENE 8.1 mph - N/A   Overcast
6:53 AM 62.1 °F 60.1 °F 93% 30.22 in 5.0 mi NE 5.8 mph - N/A   Overcast
7:47 AM 62.6 °F 59.0 °F 88% 30.23 in 3.0 mi ENE 8.1 mph - N/A   Overcast
7:53 AM 62.1 °F 59.0 °F 90% 30.23 in 3.0 mi ENE 8.1 mph - N/A   Overcast
8:34 AM 62.6 °F 60.8 °F 94% 30.23 in 7.0 mi East 6.9 mph - N/A   Overcast
8:53 AM 63.0 °F 60.1 °F 90% 30.23 in 10.0 mi East 5.8 mph - N/A   Overcast
9:53 AM 66.0 °F 61.0 °F 84% 30.23 in 10.0 mi SE 8.1 mph - N/A   Overcast
10:53 AM 66.9 °F 61.0 °F 81% 30.23 in 10.0 mi SSW 8.1 mph - N/A   Overcast
11:53 AM 70.0 °F 61.0 °F 73% 30.21 in 10.0 mi Calm Calm - N/A   Overcast
12:53 PM 73.0 °F 60.1 °F 64% 30.18 in 10.0 mi ESE 6.9 mph - 0.00 in Rain Light Rain
1:53 PM 72.0 °F 61.0 °F 68% 30.15 in 10.0 mi ESE 6.9 mph - 0.00 in Rain Light Rain
2:53 PM 75.9 °F 57.9 °F 54% 30.14 in 10.0 mi SSE 11.5 mph - 0.00 in   Mostly Cloudy
3:53 PM 73.9 °F 57.9 °F 57% 30.13 in 10.0 mi SSE 9.2 mph - N/A   Mostly Cloudy
4:53 PM 71.1 °F 61.0 °F 70% 30.14 in 10.0 mi SE 10.4 mph - N/A   Mostly Cloudy
5:53 PM 66.9 °F 60.1 °F 79% 30.15 in 10.0 mi SSE 9.2 mph - N/A   Scattered Clouds
6:53 PM 64.0 °F 57.9 °F 80% 30.15 in 10.0 mi Calm Calm - N/A   Scattered Clouds
7:53 PM 61.0 °F 57.9 °F 90% 30.17 in 10.0 mi Calm Calm - N/A   Partly Cloudy
8:53 PM 60.1 °F 57.0 °F 90% 30.17 in 10.0 mi Calm Calm - N/A   Partly Cloudy
9:53 PM 59.0 °F 55.9 °F 90% 30.16 in 10.0 mi Calm Calm - N/A   Partly Cloudy
10:53 PM 59.0 °F 57.0 °F 93% 30.16 in 10.0 mi Calm Calm - N/A   Partly Cloudy
11:31 PM 59.0 °F 57.2 °F 94% 30.16 in 2.5 mi Calm Calm - N/A   Clear
11:53 PM 57.9 °F 55.9 °F 93% 30.15 in 2.5 mi Calm Calm - N/A   Scattered Clouds